Simultaneous Nadir Overpasses (SNOs) Predictions

Prediction of SNOs between FY3D and TERRA Satellite Orbit:

Table of predicted SNOs for the next 14.0 days since TLE Epoch: 5/21/2021
Index Date (FY3D) Time (FY3D) Lat,Lon (FY3D) SZA (FY3D ) Date (TERRA) Time (TERRA) Lat,Lon (TERRA) SZA (TERRA ) Distance(km) Time Diff (sec)
1 05/24/2021 10:36:38 -69.80,-159.58 131.17 05/24/2021 10:37:47 -69.76,-159.59 131.20 3.57 69
2 05/24/2021 11:27:22 69.68, 7.90 48.71 05/24/2021 11:27:14 69.66, 7.91 48.69 2.59 8
3 05/24/2021 12:17:59 -69.37, 175.67 131.60 05/24/2021 12:16:46 -69.43, 175.25 131.55 17.80 73
4 05/27/2021 02:52:59 -69.89, -43.79 131.54 05/27/2021 02:54:11 -69.87, -43.56 131.56 9.06 72
5 05/27/2021 03:43:41 69.67, 123.85 48.24 05/27/2021 03:43:39 69.70, 123.85 48.27 2.91 2
6 05/27/2021 04:34:22 -69.58, -68.69 131.86 05/27/2021 04:33:09 -69.59, -68.66 131.85 1.74 73
7 05/29/2021 19:09:22 -70.15, 71.76 131.70 05/29/2021 19:10:33 -70.02, 72.53 131.83 32.96 71
8 05/29/2021 19:59:59 69.67,-120.21 47.82 05/29/2021 20:00:04 69.68,-120.28 47.83 3.22 5
9 05/29/2021 20:50:40 -69.58, 47.26 132.29 05/29/2021 20:49:34 -69.58, 47.21 132.29 1.96 66
10 06/01/2021 11:25:45 -70.36,-172.63 131.87 06/01/2021 11:26:54 -70.28,-171.22 131.95 53.86 69
11 06/01/2021 12:16:19 69.73, -4.35 47.50 06/01/2021 12:16:29 69.72, -4.35 47.49 1.00 10
12 06/01/2021 13:07:00 -69.63, 163.12 132.61 06/01/2021 13:05:59 -69.62, 163.14 132.63 1.42 61
13 06/04/2021 03:42:08 -70.57, -57.03 131.98 06/04/2021 03:43:16 -70.47, -55.05 132.08 74.45 68
14 06/04/2021 04:32:38 69.73, 111.58 47.17 06/04/2021 04:32:54 69.75, 111.57 47.18 1.73 16
15 06/04/2021 05:23:19 -69.63, -80.94 132.94 06/04/2021 05:22:24 -69.65, -80.93 132.92 2.27 55



Historial Predications of SNOs between FY3D and TERRA
